Retour au catalogue

STARLINK-32640

ActifCommunicationsVLEO
NORAD 62198·PAYLOAD·🇺🇸 United States

Lancé Dec 4, 2024 depuis Cape Canaveral Space Force Station

Loading…

Prochains Passages (prochaines 24 heures)

TLE

FraisSource: CelesTrak SupGP

Époque: Sep 15, 2026, 02:50 UTC

1 62198C 24229G   26258.11854167  .00001903  00000+0  68915-4 0  2584
2 62198  43.0023 280.7321 0001285 265.4649 117.1920 15.27579408    15

Suivez STARLINK-32640 en temps réel avec AllMySat

Download on the App Store